• In Moldova, Republic
  • List of Countries
  • For 7 days
  • Water Temperature
  • Satellite Maps
  • Weather Map
  • Weather Widgets
  • user-avatar
    Login

    Hourly Weather San Fernando de Apure

    Today, 18 March, Monday

    Time Temperature Precipitation Wind Pressure Humidity
    00:00 +34°C° 0 mm 3 mps 753 mmHg 40%
    01:00 +33°C° 0 mm 3 mps 753 mmHg 42%
    02:00 +33°C° 0 mm 3 mps 752 mmHg 43%
    03:00 +32°C° 0 mm 4 mps 752 mmHg 46%
    04:00 +32°C° 0 mm 4 mps 752 mmHg 49%
    05:00 +30°C° 0 mm 4 mps 752 mmHg 52%
    06:00 +30°C° 0 mm 5 mps 753 mmHg 52%
    07:00 +32°C° 0 mm 5 mps 753 mmHg 52%
    08:00 +32°C° 0 mm 5 mps 754 mmHg 53%
    09:00 +33°C° 0 mm 5 mps 754 mmHg 48%
    10:00 +35°C° 0 mm 5 mps 754 mmHg 43%
    11:00 +37°C° 0 mm 5 mps 754 mmHg 39%
    12:00 +39°C° 0 mm 5 mps 753 mmHg 35%
    13:00 +40°C° 0 mm 5 mps 752 mmHg 31%
    14:00 +42°C° 0 mm 5 mps 751 mmHg 28%
    15:00 +42°C° 0 mm 4 mps 750 mmHg 27%
    16:00 +42°C° 0 mm 4 mps 750 mmHg 26%
    17:00 +42°C° 0 mm 4 mps 749 mmHg 25%
    18:00 +39°C° 0 mm 3 mps 749 mmHg 27%
    19:00 +38°C° 0 mm 2 mps 750 mmHg 29%
    20:00 +36°C° 0 mm 2 mps 750 mmHg 31%
    21:00 +36°C° 0 mm 2 mps 751 mmHg 32%
    22:00 +35°C° 0 mm 2 mps 751 mmHg 33%
    23:00 +35°C° 0 mm 2 mps 752 mmHg 34%

    Tomorrow, 19 March, Tuesday

    Time Temperature Precipitation Wind Pressure Humidity
    00:00 +34°C° 0 mm 3 mps 752 mmHg 37%
    01:00 +34°C° 0 mm 3 mps 752 mmHg 40%
    02:00 +33°C° 0 mm 4 mps 752 mmHg 43%
    03:00 +33°C° 0 mm 4 mps 752 mmHg 46%
    04:00 +32°C° 0 mm 4 mps 752 mmHg 49%
    05:00 +32°C° 0 mm 4 mps 752 mmHg 52%
    06:00 +32°C° 0 mm 5 mps 753 mmHg 52%
    07:00 +32°C° 0 mm 5 mps 753 mmHg 52%
    08:00 +32°C° 0 mm 6 mps 754 mmHg 52%
    09:00 +33°C° 0 mm 6 mps 754 mmHg 48%
    10:00 +35°C° 0 mm 5 mps 754 mmHg 43%
    11:00 +36°C° 0 mm 5 mps 755 mmHg 39%
    12:00 +39°C° 0 mm 5 mps 754 mmHg 35%
    13:00 +40°C° 0 mm 5 mps 752 mmHg 31%
    14:00 +41°C° 0 mm 4 mps 751 mmHg 28%
    15:00 +41°C° 0 mm 4 mps 751 mmHg 27%
    16:00 +41°C° 0 mm 4 mps 750 mmHg 26%
    17:00 +41°C° 0 mm 4 mps 749 mmHg 24%
    18:00 +39°C° 0 mm 3 mps 750 mmHg 26%
    19:00 +37°C° 0 mm 2 mps 750 mmHg 28%
    20:00 +36°C° 0 mm 2 mps 751 mmHg 29%
    21:00 +35°C° 0 mm 2 mps 751 mmHg 30%
    22:00 +35°C° 0 mm 2 mps 752 mmHg 31%
    23:00 +35°C° 0 mm 2 mps 752 mmHg 32%

    Day after tomorrow, 20 March, Wednesday

    Time Temperature Precipitation Wind Pressure Humidity
    00:00 +34°C° 0 mm 3 mps 752 mmHg 38%
    01:00 +33°C° 0 mm 3 mps 752 mmHg 44%
    02:00 +32°C° 0 mm 4 mps 752 mmHg 50%
    03:00 +32°C° 0 mm 4 mps 752 mmHg 52%
    04:00 +30°C° 0 mm 4 mps 751 mmHg 54%
    05:00 +30°C° 0 mm 4 mps 751 mmHg 56%
    06:00 +30°C° 0 mm 4 mps 752 mmHg 55%
    07:00 +30°C° 0 mm 5 mps 753 mmHg 54%
    08:00 +30°C° 0 mm 5 mps 754 mmHg 54%
    09:00 +33°C° 0 mm 5 mps 754 mmHg 49%
    10:00 +35°C° 0 mm 5 mps 754 mmHg 44%
    11:00 +36°C° 0 mm 5 mps 754 mmHg 40%
    12:00 +39°C° 0 mm 5 mps 753 mmHg 36%
    13:00 +40°C° 0 mm 4 mps 752 mmHg 33%
    14:00 +41°C° 0 mm 4 mps 751 mmHg 29%
    15:00 +41°C° 0 mm 4 mps 750 mmHg 28%
    16:00 +41°C° 0 mm 4 mps 749 mmHg 27%
    17:00 +40°C° 0 mm 3 mps 748 mmHg 26%
    18:00 +39°C° 0 mm 3 mps 749 mmHg 29%
    19:00 +37°C° 0 mm 2 mps 749 mmHg 31%
    20:00 +35°C° 0 mm 1 mps 750 mmHg 34%
    21:00 +34°C° 0 mm 1 mps 751 mmHg 34%
    22:00 +34°C° 0 mm 1 mps 751 mmHg 35%
    23:00 +34°C° 0 mm 2 mps 752 mmHg 36%

    21 March, Thursday

    Time Temperature Precipitation Wind Pressure Humidity
    00:00 +34°C° 0 mm 2 mps 752 mmHg 39%
    01:00 +33°C° 0 mm 3 mps 751 mmHg 42%
    02:00 +33°C° 0 mm 4 mps 751 mmHg 45%
    03:00 +32°C° 0 mm 4 mps 751 mmHg 49%
    04:00 +32°C° 0 mm 4 mps 751 mmHg 53%
    05:00 +30°C° 0 mm 4 mps 751 mmHg 57%
    06:00 +30°C° 0 mm 4 mps 752 mmHg 56%
    07:00 +30°C° 0 mm 5 mps 753 mmHg 56%
    08:00 +30°C° 0 mm 5 mps 753 mmHg 56%
    09:00 +33°C° 0 mm 5 mps 754 mmHg 50%
    10:00 +35°C° 0 mm 5 mps 754 mmHg 45%
    11:00 +37°C° 0 mm 5 mps 754 mmHg 39%
    12:00 +38°C° 0 mm 4 mps 753 mmHg 36%
    13:00 +40°C° 0 mm 4 mps 751 mmHg 32%
    14:00 +42°C° 0 mm 4 mps 750 mmHg 29%
    15:00 +42°C° 0 mm 3 mps 750 mmHg 29%
    16:00 +42°C° 0 mm 3 mps 749 mmHg 28%
    17:00 +42°C° 0 mm 3 mps 748 mmHg 28%
    18:00 +39°C° 0 mm 2 mps 749 mmHg 30%
    19:00 +38°C° 0 mm 2 mps 750 mmHg 33%
    20:00 +35°C° 0 mm 1 mps 750 mmHg 35%
    21:00 +35°C° 0 mm 1 mps 751 mmHg 35%
    22:00 +35°C° 0 mm 2 mps 752 mmHg 35%
    23:00 +35°C° 0 mm 2 mps 752 mmHg 35%

    22 March, Friday

    Time Temperature Precipitation Wind Pressure Humidity
    00:00 +34°C° 0 mm 3 mps 752 mmHg 40%
    01:00 +33°C° 0 mm 3 mps 752 mmHg 44%
    02:00 +31°C° 0 mm 3 mps 752 mmHg 49%
    03:00 +31°C° 0 mm 3 mps 752 mmHg 52%
    04:00 +30°C° 0 mm 3 mps 752 mmHg 54%
    05:00 +30°C° 0 mm 3 mps 752 mmHg 57%
    06:00 +30°C° 0 mm 4 mps 753 mmHg 57%
    07:00 +30°C° 0 mm 4 mps 754 mmHg 58%
    08:00 +30°C° 0 mm 4 mps 755 mmHg 58%
    09:00 +33°C° 0 mm 4 mps 754 mmHg 52%
    10:00 +35°C° 0 mm 4 mps 754 mmHg 46%
    11:00 +36°C° 0 mm 4 mps 754 mmHg 40%
    12:00 +38°C° 0 mm 4 mps 753 mmHg 37%
    13:00 +40°C° 0 mm 4 mps 752 mmHg 33%
    14:00 +42°C° 0 mm 3 mps 751 mmHg 30%
    15:00 +42°C° 0 mm 3 mps 750 mmHg 30%
    16:00 +40°C° 0 mm 3 mps 750 mmHg 29%
    17:00 +40°C° 0 mm 3 mps 749 mmHg 29%
    18:00 +39°C° 0 mm 2 mps 750 mmHg 31%
    19:00 +38°C° 0 mm 2 mps 750 mmHg 33%
    20:00 +35°C° 0 mm 1 mps 751 mmHg 36%
    21:00 +35°C° 0 mm 1 mps 751 mmHg 36%
    22:00 +34°C° 0 mm 1 mps 752 mmHg 37%
    23:00 +34°C° 0 mm 1 mps 752 mmHg 37%

    23 March, Saturday

    Time Temperature Precipitation Wind Pressure Humidity
    00:00 +33°C° 0 mm 1 mps 752 mmHg 39%
    01:00 +33°C° 0 mm 1 mps 752 mmHg 40%
    02:00 +33°C° 0 mm 1 mps 752 mmHg 41%
    03:00 +32°C° 0 mm 2 mps 752 mmHg 42%
    04:00 +32°C° 0 mm 2 mps 752 mmHg 42%
    05:00 +31°C° 0 mm 3 mps 753 mmHg 42%
    06:00 +31°C° 0 mm 3 mps 753 mmHg 44%
    07:00 +31°C° 0 mm 3 mps 754 mmHg 45%
    08:00 +31°C° 0 mm 3 mps 755 mmHg 46%
    09:00 +34°C° 0 mm 3 mps 755 mmHg 43%
    10:00 +35°C° 0 mm 3 mps 755 mmHg 39%
    11:00 +37°C° 0 mm 4 mps 755 mmHg 36%
    12:00 +38°C° 0 mm 3 mps 754 mmHg 33%
    13:00 +40°C° 0 mm 3 mps 753 mmHg 30%
    14:00 +42°C° 0 mm 3 mps 752 mmHg 28%
    15:00 +42°C° 0 mm 3 mps 751 mmHg 28%
    16:00 +40°C° 0 mm 3 mps 751 mmHg 29%
    17:00 +40°C° 0 mm 2 mps 750 mmHg 29%
    18:00 +39°C° 0 mm 2 mps 751 mmHg 30%
    19:00 +38°C° 0 mm 2 mps 751 mmHg 32%
    20:00 +36°C° 0 mm 1 mps 752 mmHg 33%
    21:00 +36°C° 0 mm 2 mps 752 mmHg 36%
    22:00 +36°C° 0 mm 2 mps 753 mmHg 38%
    23:00 +35°C° 0 mm 3 mps 753 mmHg 41%
    Show more